When you browse on this site, cookies collect data to enhance your experience and personalize the content and advertising you see.
Visit our Privacy Policy to learn more. By continuing to use the site, you agree to this use of cookies and data.
  • In United Kingdom
  • List of Countries
  • For 7 days
  • Water Temperature
  • Weather Map
  • Weather Widgets
  • user-avatar
    Login

    Hourly Weather Sharh

    Today, 16 October, Wednesday

    Time Temperature Precipitation Wind Pressure Humidity
    00:00 +28°C° 0 mm 2 mps 759 mmHg 69%
    01:00 +28°C° 0 mm 2 mps 759 mmHg 71%
    02:00 +28°C° 0 mm 1 mps 759 mmHg 72%
    03:00 +27°C° 0 mm 1 mps 759 mmHg 73%
    04:00 +27°C° 0 mm 1 mps 759 mmHg 74%
    05:00 +27°C° 0 mm 1 mps 759 mmHg 70%
    06:00 +27°C° 0 mm 2 mps 760 mmHg 67%
    07:00 +28°C° 0 mm 2 mps 760 mmHg 63%
    08:00 +30°C° 0 mm 3 mps 760 mmHg 53%
    09:00 +33°C° 0 mm 3 mps 760 mmHg 42%
    10:00 +35°C° 0 mm 3 mps 760 mmHg 30%
    11:00 +36°C° 0 mm 3 mps 759 mmHg 29%
    12:00 +36°C° 0 mm 4 mps 759 mmHg 28%
    13:00 +37°C° 0 mm 4 mps 758 mmHg 28%
    14:00 +36°C° 0 mm 5 mps 758 mmHg 33%
    15:00 +35°C° 0 mm 5 mps 758 mmHg 38%
    16:00 +34°C° 0 mm 5 mps 757 mmHg 43%
    17:00 +33°C° 0 mm 5 mps 758 mmHg 49%
    18:00 +32°C° 0 mm 5 mps 758 mmHg 55%
    19:00 +30°C° 0 mm 5 mps 759 mmHg 61%
    20:00 +30°C° 0 mm 4 mps 759 mmHg 65%
    21:00 +29°C° 0 mm 4 mps 759 mmHg 69%
    22:00 +29°C° 0 mm 4 mps 760 mmHg 73%
    23:00 +28°C° 0 mm 4 mps 759 mmHg 75%

    Tomorrow, 17 October, Thursday

    Time Temperature Precipitation Wind Pressure Humidity
    00:00 +28°C° 0 mm 3 mps 759 mmHg 77%
    01:00 +28°C° 0 mm 3 mps 759 mmHg 79%
    02:00 +27°C° 0 mm 2 mps 759 mmHg 80%
    03:00 +27°C° 0 mm 2 mps 759 mmHg 80%
    04:00 +26°C° 0 mm 1 mps 758 mmHg 81%
    05:00 +27°C° 0 mm 1 mps 759 mmHg 79%
    06:00 +27°C° 0 mm 2 mps 760 mmHg 77%
    07:00 +27°C° 0 mm 2 mps 760 mmHg 75%
    08:00 +29°C° 0 mm 2 mps 760 mmHg 64%
    09:00 +31°C° 0 mm 2 mps 760 mmHg 53%
    10:00 +32°C° 0 mm 2 mps 760 mmHg 42%
    11:00 +34°C° 0 mm 3 mps 760 mmHg 38%
    12:00 +35°C° 0 mm 4 mps 759 mmHg 35%
    13:00 +36°C° 0 mm 4 mps 759 mmHg 32%
    14:00 +36°C° 0 mm 4 mps 758 mmHg 33%
    15:00 +35°C° 0 mm 4 mps 758 mmHg 35%
    16:00 +35°C° 0 mm 4 mps 758 mmHg 36%
    17:00 +33°C° 0 mm 4 mps 758 mmHg 43%
    18:00 +31°C° 0 mm 3 mps 758 mmHg 50%
    19:00 +30°C° 0 mm 3 mps 759 mmHg 57%
    20:00 +29°C° 0 mm 3 mps 759 mmHg 61%
    21:00 +29°C° 0 mm 2 mps 759 mmHg 64%
    22:00 +28°C° 0 mm 2 mps 759 mmHg 67%
    23:00 +28°C° 0 mm 2 mps 759 mmHg 68%

    Day after tomorrow, 18 October, Friday

    Time Temperature Precipitation Wind Pressure Humidity
    00:00 +28°C° 0 mm 2 mps 759 mmHg 70%
    01:00 +27°C° 0 mm 1 mps 758 mmHg 71%
    02:00 +27°C° 0 mm 1 mps 758 mmHg 71%
    03:00 +26°C° 0 mm 1 mps 758 mmHg 72%
    04:00 +26°C° 0 mm 1 mps 758 mmHg 72%
    05:00 +26°C° 0 mm 2 mps 758 mmHg 68%
    06:00 +27°C° 0 mm 2 mps 759 mmHg 64%
    07:00 +27°C° 0 mm 2 mps 759 mmHg 60%
    08:00 +29°C° 0 mm 2 mps 760 mmHg 50%
    09:00 +31°C° 0 mm 1 mps 760 mmHg 41%
    10:00 +31°C° 0 mm 0 mps 760 mmHg 31%
    11:00 +34°C° 0 mm 1 mps 759 mmHg 28%
    12:00 +35°C° 0 mm 1 mps 759 mmHg 25%
    13:00 +37°C° 0 mm 2 mps 758 mmHg 22%
    14:00 +37°C° 0 mm 3 mps 757 mmHg 24%
    15:00 +36°C° 0 mm 3 mps 757 mmHg 26%
    16:00 +36°C° 0 mm 4 mps 757 mmHg 29%
    17:00 +34°C° 0 mm 3 mps 757 mmHg 34%
    18:00 +33°C° 0 mm 3 mps 757 mmHg 40%
    19:00 +31°C° 0 mm 3 mps 758 mmHg 45%
    20:00 +30°C° 0 mm 3 mps 758 mmHg 48%
    21:00 +30°C° 0 mm 2 mps 758 mmHg 50%
    22:00 +29°C° 0 mm 2 mps 758 mmHg 52%
    23:00 +28°C° 0 mm 2 mps 758 mmHg 55%

    19 October, Saturday

    Time Temperature Precipitation Wind Pressure Humidity
    00:00 +28°C° 0 mm 2 mps 758 mmHg 58%
    01:00 +27°C° 0 mm 1 mps 758 mmHg 61%
    02:00 +27°C° 0 mm 1 mps 758 mmHg 63%
    03:00 +26°C° 0 mm 1 mps 758 mmHg 65%
    04:00 +26°C° 0 mm 1 mps 758 mmHg 67%
    05:00 +26°C° 0 mm 1 mps 758 mmHg 63%
    06:00 +27°C° 0 mm 1 mps 759 mmHg 59%
    07:00 +27°C° 0 mm 2 mps 760 mmHg 55%
    08:00 +29°C° 0 mm 1 mps 760 mmHg 47%
    09:00 +31°C° 0 mm 1 mps 760 mmHg 38%
    10:00 +31°C° 0 mm 0 mps 760 mmHg 30%
    11:00 +34°C° 0 mm 1 mps 759 mmHg 27%
    12:00 +35°C° 0 mm 1 mps 759 mmHg 23%
    13:00 +37°C° 0 mm 2 mps 758 mmHg 19%
    14:00 +37°C° 0 mm 3 mps 758 mmHg 22%
    15:00 +36°C° 0 mm 4 mps 757 mmHg 25%
    16:00 +35°C° 0 mm 4 mps 757 mmHg 28%
    17:00 +34°C° 0 mm 4 mps 757 mmHg 34%
    18:00 +33°C° 0 mm 4 mps 758 mmHg 41%
    19:00 +32°C° 0 mm 4 mps 758 mmHg 47%
    20:00 +30°C° 0 mm 3 mps 759 mmHg 51%
    21:00 +30°C° 0 mm 3 mps 759 mmHg 54%
    22:00 +29°C° 0 mm 3 mps 759 mmHg 58%
    23:00 +29°C° 0 mm 2 mps 759 mmHg 59%

    20 October, Sunday

    Time Temperature Precipitation Wind Pressure Humidity
    00:00 +28°C° 0 mm 2 mps 759 mmHg 61%
    01:00 +28°C° 0 mm 2 mps 759 mmHg 63%
    02:00 +27°C° 0 mm 2 mps 759 mmHg 64%
    03:00 +27°C° 0 mm 1 mps 759 mmHg 65%
    04:00 +27°C° 0 mm 1 mps 759 mmHg 66%
    05:00 +27°C° 0 mm 1 mps 759 mmHg 63%
    06:00 +27°C° 0 mm 2 mps 760 mmHg 60%
    07:00 +27°C° 0 mm 2 mps 760 mmHg 57%
    08:00 +29°C° 0 mm 2 mps 760 mmHg 47%
    09:00 +31°C° 0 mm 2 mps 760 mmHg 38%
    10:00 +34°C° 0 mm 2 mps 760 mmHg 29%
    11:00 +35°C° 0 mm 2 mps 760 mmHg 26%
    12:00 +36°C° 0 mm 3 mps 759 mmHg 24%
    13:00 +37°C° 0 mm 3 mps 758 mmHg 21%
    14:00 +36°C° 0 mm 4 mps 758 mmHg 25%
    15:00 +36°C° 0 mm 4 mps 758 mmHg 28%
    16:00 +35°C° 0 mm 5 mps 758 mmHg 32%
    17:00 +33°C° 0 mm 5 mps 758 mmHg 40%
    18:00 +32°C° 0 mm 4 mps 758 mmHg 48%
    19:00 +30°C° 0 mm 4 mps 758 mmHg 56%
    20:00 +29°C° 0 mm 4 mps 759 mmHg 58%
    21:00 +29°C° 0 mm 4 mps 759 mmHg 61%
    22:00 +29°C° 0 mm 4 mps 760 mmHg 64%
    23:00 +28°C° 0 mm 3 mps 759 mmHg 65%

    21 October, Monday

    Time Temperature Precipitation Wind Pressure Humidity
    00:00 +28°C° 0 mm 3 mps 759 mmHg 66%
    01:00 +28°C° 0 mm 3 mps 759 mmHg 67%
    02:00 +27°C° 0 mm 3 mps 759 mmHg 66%
    03:00 +27°C° 0 mm 3 mps 759 mmHg 65%
    04:00 +27°C° 0 mm 3 mps 758 mmHg 65%
    05:00 +27°C° 0 mm 3 mps 759 mmHg 61%
    06:00 +27°C° 0 mm 3 mps 759 mmHg 57%
    07:00 +27°C° 0 mm 3 mps 760 mmHg 53%
    08:00 +29°C° 0 mm 3 mps 760 mmHg 45%
    09:00 +31°C° 0 mm 3 mps 760 mmHg 38%
    10:00 +34°C° 0 mm 3 mps 760 mmHg 30%
    11:00 +35°C° 0 mm 3 mps 759 mmHg 28%
    12:00 +36°C° 0 mm 4 mps 758 mmHg 27%
    13:00 +36°C° 0 mm 4 mps 758 mmHg 26%
    14:00 +36°C° 0 mm 4 mps 757 mmHg 27%
    15:00 +35°C° 0 mm 5 mps 757 mmHg 29%
    16:00 +35°C° 0 mm 5 mps 757 mmHg 30%
    17:00 +34°C° 0 mm 5 mps 757 mmHg 38%
    18:00 +32°C° 0 mm 4 mps 758 mmHg 45%
    19:00 +30°C° 0 mm 4 mps 758 mmHg 52%
    20:00 +30°C° 0 mm 4 mps 758 mmHg 55%
    21:00 +29°C° 0 mm 4 mps 758 mmHg 58%
    22:00 +29°C° 0 mm 4 mps 759 mmHg 60%
    23:00 +29°C° 0 mm 4 mps 758 mmHg 62%
    Show more